Regional Weather Roundup
Issued by NWS

Home | Current Version | Previous Version | Text Only | Print | Product List | Glossary On
Versions: 1 2 3 4 5 6 7 8 9 10 11 12 13 14 15 16 17 18 19 20 21 22 23 24 25 26 27 28 29 30 31 32 33 34 35 36 37 38 39 40 41 42 43 44 45 46 47 48 49 50
000
ASUS42 KFFC 181010
RWRGA
WEATHER ROUNDUP FOR GEORGIA
NATIONAL WEATHER SERVICE PEACHTREE CITY GA
500 AM EST THU JAN 18 2018

NOTE: "FAIR" INDICATES FEW OR NO CLOUDS BELOW 12,000 FEET WITH NO
SIGNIFICANT WEATHER AND/OR OBSTRUCTIONS TO VISIBILITY.

* = USE WITH CAUTION. THE STATIONS MARKED WITH AN ASTERISK MAY NOT
REPORT WEATHER SUCH AS PRECIPITATION, FOG, OR THUNDER AND ARE NOT
QUALITY CONTROLLED BY NWS.

THE REMARK "TC" DENOTES TEMPERATURE READING IN DEGREES CELSIUS.

GAZ001>058-181100-
NORTH GEORGIA

CITY           SKY/WX    TMP DP  RH WIND       PRES   REMARKS
ATLANTA        FAIR      15   8  73 NW15      30.39F WCI   0
ATHENS         FAIR      18   9  68 W7        30.36S WCI   9
CHAMBLEE       FAIR      14   7  73 NW9       30.39F WCI   2
PEACHTREE CITY FAIR      16   8  71 NW7       30.43F WCI   6
ROME           FAIR      14   9  80 NW6       30.49F WCI   5
WEST ATLANTA   FAIR      15   8  73 NW8       30.42F WCI   4
GAINESVILLE    FAIR      17   7  64 W10       30.33S WCI   5
CARTERSVILLE   FAIR      14   9  80 MISG      30.48F


CITY           SKY/WX    TMP DP  RH WIND       PRES   REMARKS
DALTON*        FAIR      14  12  92 NW7       30.51S WCI   4
LAWRENCEVILLE* FAIR      15   8  73 W7          N/A  WCI   5
MARIETTA       FAIR      14   7  72 NW12G18   30.39F WCI   1
KENNESAW*      FAIR      14   8  77 NW8       30.42F WCI   3
CANTON*        FAIR      16  10  79 NW12G20   30.38F WCI   3
BLAIRSVILLE*   FAIR       8   4  84 CALM      30.37S
$$

GAZ059>098-102>109-181100-
CENTRAL GEORGIA

CITY           SKY/WX    TMP DP  RH WIND       PRES   REMARKS
AUGUSTA-BUSH   FAIR      21  11  65 W6        30.40R WCI  13
AUGUSTA-DANIEL FAIR      23  10  57 VRB3      30.38R
COLUMBUS       FAIR      20   8  60 CALM      30.47R
MACON          FAIR      19   9  65 NW3       30.44S
ROBINS AFB     CLEAR     19  10  69 NW8       30.44S WCI   9


CITY           SKY/WX    TMP DP  RH WIND       PRES   REMARKS
LAGRANGE*      FAIR      18   9  65 NW3       30.44F
SYLVANIA*      FAIR      24  15  68 NW9       30.40R WCI  14
MILLEDGEVILLE* FAIR      23  14  68 NW7       30.42S WCI  15
$$

GAZ099>101-110>166-181100-
SOUTH GEORGIA

CITY           SKY/WX    TMP DP  RH WIND       PRES   REMARKS
SAVANNAH       FAIR      26  12  55 NW10      30.39R WCI  16
VALDOSTA       FAIR      20  12  71 VRB3      30.42S
ALMA           FAIR      23  11  60 NW9       30.42R WCI  13
ST SIMONS      FAIR      25  13  60 NW9       30.39S WCI  15
FT STEWART     FAIR      24  11  58 NW7       30.38S WCI  16
ALBANY         FAIR      22  11  62 N8        30.47F WCI  12
HUNTER AFB     FAIR      25  11  56 NW10      30.35R WCI  15
MOODY AFB      FAIR      22  12  65 N9        30.41R WCI  12
BRUNSWICK      FAIR      25  14  63 NW8       30.41R WCI  16


CITY           SKY/WX    TMP DP  RH WIND       PRES   REMARKS
BAINBRIDGE*    FAIR      25  18  74 CALM      30.47S
MOULTRIE*      FAIR      25  14  63 NW6       30.44R WCI  18
VIDALIA*       FAIR      23  14  68 NW7       30.42R WCI  15
WAYCROSS*      FAIR      23   9  56 NW7       30.42S WCI  14
DOUGLAS*       FAIR      23  10  58 N7        30.44S WCI  15
$$




USA.gov is the U.S. government's official web portal to all federal, state and local government web resources and services.